Total_Precipitation_Accumulation
2.98 3.46 4.01 3.76 3.22 2.61 2.58 2.86 3.42 2.90 1.92 1.49 2.14 3.21 3.17 3.39 3.57 2.31 1.45 1.19 0.79 0.59 0.54 0.51 0.56 0.61 0.74 1.06 1.40 1.62 1.72 2.01 2.07 1.76 2.01 2.55 2.70 2.60
2.73 2.71 2.76 3.19 3.45 3.43 3.34 3.14 3.47 3.48 2.81 1.73 1.91 1.96 2.95 3.18 3.20 3.65 2.22 1.43 1.24 0.98 1.00 0.84 0.64 0.69 0.70 0.67 0.68 0.77 0.90 0.94 1.25 1.31 1.23 1.28 1.85 2.42
3.04 2.86 2.71 2.71 3.06 3.28 3.35 3.37 3.28 3.29 2.90 2.11 2.01 2.00 2.37 2.89 2.73 3.31 3.50 2.16 1.57 1.41 1.42 1.67 1.59 1.28 1.01 0.89 0.75 0.62 0.61 0.70 0.79 0.80 0.77 0.76 0.75 1.20
3.41 3.46 3.61 3.52 3.39 3.17 3.37 3.77 3.70 3.48 3.62 3.54 3.09 3.09 2.82 3.14 3.43 3.06 3.33 2.84 1.80 1.75 1.64 1.61 1.63 1.39 1.32 1.39 1.41 1.41 1.15 1.03 0.97 0.90 0.79 0.66 0.66 0.67
4.51 4.04 3.74 3.84 3.76 3.52 3.27 3.07 3.18 3.45 3.41 3.44 3.26 3.10 3.48 3.47 4.10 4.11 4.12 3.43 2.79 2.28 1.84 1.62 1.59 1.59 1.54 1.57 1.55 1.52 1.45 1.27 1.26 1.45 1.64 1.55 1.12 0.95
5.58 5.19 4.36 4.14 4.16 4.08 3.96 3.69 3.43 3.34 3.31 3.28 3.30 3.16 3.26 3.64 4.21 4.67 4.86 4.68 3.32 2.39 2.19 2.03 2.02 1.81 1.67 1.56 1.61 1.56 1.44 1.45 1.37 1.30 1.33 1.71 2.12 1.99
4.84 4.85 5.15 5.18 4.74 4.36 4.53 4.46 4.36 4.53 4.84 4.77 4.42 4.38 3.91 3.28 3.49 4.11 4.88 4.70 4.31 3.11 2.55 2.38 2.28 2.48 2.50 2.39 2.11 1.95 1.86 1.83 1.74 1.62 1.66 1.77 2.17 2.57
7.20 5.90 5.38 5.76 5.29 5.10 4.95 4.72 4.50 4.63 4.77 4.70 4.86 4.80 4.33 3.94 3.74 4.30 5.13 5.93 5.85 4.22 3.60 3.44 2.93 2.67 2.56 2.56 2.88 2.61 2.33 2.26 2.16 1.95 1.79 1.79 1.99 2.40
6.54 6.64 5.85 5.56 5.24 4.16 4.92 4.74 4.56 4.74 4.69 4.65 4.48 4.45 4.51 4.56 4.63 5.24 5.59 5.97 6.05 5.14 4.66 4.67 4.10 3.58 2.94 2.74 3.15 2.52 2.42 2.44 2.29 2.14 2.12 2.06 2.01 2.08
4.10 4.73 4.98 4.61 4.95 4.81 4.31 4.66 4.67 4.69 4.90 5.10 4.97 4.97 5.08 5.13 5.36 5.21 5.08 5.62 6.06 5.21 5.03 5.26 4.18 4.05 3.57 3.10 3.61 2.82 2.63 2.69 2.94 2.85 2.52 2.35 2.15 2.20
2.76 2.98 3.59 3.56 4.51 4.22 3.59 3.81 4.09 4.29 4.98 4.91 4.43 4.55 4.75 4.41 4.44 4.86 5.62 5.77 5.71 5.10 4.59 4.53 3.99 4.15 3.80 3.41 3.33 3.59 2.99 2.89 2.84 2.83 2.85 2.75 2.49 2.46
2.32 2.48 3.56 2.92 3.60 3.19 3.05 3.08 3.36 3.44 3.25 3.31 3.47 3.52 3.34 3.42 4.03 3.56 3.73 4.50 4.91 4.69 4.32 4.48 4.09 4.18 4.77 4.01 3.20 3.04 2.95 3.01 3.06 2.96 2.71 2.71 2.69 2.35
2.62 2.55 2.73 3.56 2.86 2.74 2.94 2.96 3.99 3.93 4.11 3.50 3.25 3.30 3.07 2.82 2.92 3.10 3.30 4.01 4.42 3.79 3.55 4.35 4.04 3.82 4.00 3.43 2.96 2.60 2.42 2.49 2.57 2.68 2.74 2.68 2.55 2.50
2.86 2.94 3.32 3.57 2.82 2.73 2.87 3.58 3.98 3.48 2.82 2.79 2.97 3.26 3.38 3.30 3.19 3.12 3.32 3.68 3.75 3.71 3.59 4.04 3.56 2.95 2.84 2.68 2.53 2.45 2.22 2.01 1.85 1.84 2.01 2.39 2.56 2.56
2.49 2.81 2.95 2.75 2.42 2.46 2.84 3.07 2.99 2.87 3.16 3.51 3.67 3.76 3.75 3.65 3.40 3.39 3.43 3.52 3.48 3.60 3.69 3.51 3.42 3.18 3.05 2.64 2.31 2.20 2.53 2.19 1.74 1.61 1.84 1.82 1.92 2.05
2.25 2.42 2.47 2.54 2.55 2.57 2.65 2.66 2.67 2.92 3.08 3.18 3.25 3.30 3.18 3.02 3.02 3.00 2.96 2.97 3.20 3.34 3.14 3.11 3.17 3.28 3.31 3.04 2.68 2.42 2.24 2.21 1.95 1.70 1.84 2.14 2.13 2.13
2.05 2.31 2.50 2.48 2.34 2.26 2.26 2.28 2.33 2.37 2.46 2.42 2.38 2.36 2.34 2.28 2.20 2.13 2.24 2.32 2.46 2.28 2.57 2.81 2.75 2.59 2.48 2.42 2.58 2.31 2.10 2.01 2.00 2.12 1.95 2.15 2.24 2.09
1.82 1.86 1.89 1.85 1.78 1.70 1.59 1.54 1.57 1.59 1.49 1.41 1.41 1.42 1.51 1.53 1.50 1.45 1.53 1.60 1.64 1.64 1.69 1.91 2.28 2.36 2.43 2.36 2.54 1.96 1.79 1.73 1.69 1.67 1.67 1.97 2.10 2.37
1.38 1.32 1.27 1.23 1.13 1.00 0.91 0.88 1.00 0.94 0.82 0.86 0.88 0.87 0.87 0.94 1.27 1.09 1.07 1.10 1.20 1.19 1.12 1.23 1.46 1.74 1.89 1.77 1.79 1.82 1.56 1.51 1.69 1.80 1.70 1.71 1.85 1.91
0.90 0.82 0.76 0.67 0.66 0.66 0.59 0.59 0.65 0.66 0.64 0.55 0.52 0.55 0.61 0.68 0.76 0.78 0.79 0.88 0.93 1.03 1.06 0.97 1.00 1.13 1.52 1.78 1.67 1.17 1.59 1.46 1.19 1.29 1.47 1.59 1.71 2.25
0.62 0.60 0.59 0.55 0.58 0.59 0.58 0.56 0.69 0.69 0.68 0.65 0.58 0.64 0.69 0.73 0.70 0.66 0.71 0.81 0.92 0.87 0.84 0.79 0.85 1.29 1.18 1.34 1.51 1.09 1.03 1.41 1.01 0.91 0.99 1.26 1.38 1.37
0.61 0.57 0.55 0.51 0.52 0.52 0.51 0.53 0.55 0.62 0.64 0.61 0.50 0.49 0.51 0.52 0.55 0.49 0.50 0.56 0.53 0.50 0.48 0.59 0.83 1.04 1.05 0.97 1.08 1.02 0.97 1.15 1.26 1.05 0.94 1.10 1.23 1.37
0.58 0.52 0.51 0.49 0.47 0.46 0.46 0.45 0.42 0.42 0.45 0.52 0.44 0.46 0.54 0.53 0.48 0.50 0.48 0.47 0.48 0.52 0.55 0.61 0.60 0.71 0.74 0.76 0.99 1.02 0.94 1.03 1.13 1.16 1.13 1.11 0.92 0.83